Total_Precipitation_Accumulation
0.01 0.12 0.20 0.22 0.33 0.09 0.00 0.01 0.01 0.03 0.01 0.00 0.00 0.00 0.00 0.00 0.00 0.02 0.01 0.00 0.00 0.00 0.00 0.01 0.05 0.10 0.20 0.74 0.68 0.61 0.46 0.52 0.47 0.51 0.37 0.13 0.09 0.12 0.10 0.06 0.05 0.09 0.23 0.35 0.48 0.43 0.09 0.03 0.05
0.18 0.20 0.24 0.24 0.18 0.00 0.00 0.01 0.02 0.02 0.00 0.00 0.00 0.00 0.00 0.00 0.00 0.00 0.01 0.02 0.01 0.01 0.04 0.03 0.05 0.24 0.22 0.63 0.69 0.67 0.63 0.61 0.67 0.63 0.40 0.40 0.26 0.22 0.10 0.01 0.02 0.15 0.35 0.62 0.40 0.07 0.02 0.04 0.11
0.41 0.40 0.48 0.19 0.01 0.01 0.03 0.03 0.00 0.00 0.01 0.01 0.00 0.00 0.00 0.00 0.00 0.00 0.00 0.00 0.00 0.04 0.17 0.30 0.21 0.14 0.13 0.55 0.68 0.70 0.85 0.88 0.93 0.64 0.97 1.19 0.29 0.21 0.05 0.09 0.22 0.40 0.34 0.23 0.10 0.03 0.03 0.08 0.03
1.34 2.00 0.35 0.06 0.01 0.02 0.01 0.00 0.00 0.00 0.00 0.00 0.00 0.00 0.00 0.00 0.00 0.00 0.00 0.00 0.00 0.01 0.11 0.16 0.14 0.11 0.18 0.57 0.75 0.78 0.80 1.00 0.95 0.74 1.21 0.95 0.19 0.18 0.23 0.76 0.61 0.34 0.22 0.11 0.07 0.02 0.02 0.01 0.00
0.42 0.32 0.05 0.00 0.00 0.01 0.00 0.00 0.00 0.00 0.00 0.00 0.00 0.00 0.00 0.01 0.00 0.00 0.00 0.00 0.00 0.00 0.02 0.04 0.23 0.21 0.27 0.54 0.96 0.94 1.05 0.94 0.62 0.67 0.86 0.48 0.07 0.23 0.53 0.81 0.32 0.20 0.14 0.05 0.02 0.00 0.00 0.01 0.00
1.35 0.07 0.03 0.06 0.00 0.01 0.00 0.00 0.00 0.00 0.00 0.00 0.00 0.00 0.00 0.02 0.00 0.00 0.00 0.00 0.00 0.00 0.02 0.03 0.24 0.52 0.46 0.76 1.19 1.17 1.33 0.77 0.34 0.34 0.18 0.12 0.11 0.49 0.68 0.76 0.27 0.16 0.08 0.05 0.03 0.00 0.00 0.00 0.00
0.48 0.07 0.01 0.02 0.00 0.00 0.00 0.00 0.00 0.00 0.00 0.00 0.00 0.00 0.00 0.05 0.00 0.00 0.00 0.01 0.01 0.00 0.01 0.09 0.21 0.47 1.01 1.23 2.15 2.87 3.98 1.04 0.23 0.16 0.07 0.14 0.31 0.58 0.79 0.45 0.20 0.18 0.03 0.00 0.00 0.00 0.00 0.00 0.00
0.10 0.06 0.01 0.00 0.00 0.00 0.00 0.00 0.00 0.00 0.00 0.00 0.00 0.00 0.00 0.00 0.01 0.00 0.00 0.00 0.01 0.00 0.01 0.03 0.18 0.37 0.69 1.23 2.85 7.91 3.39 0.59 0.15 0.12 0.15 0.39 0.45 0.54 0.33 0.16 0.14 0.07 0.01 0.00 0.00 0.00 0.00 0.00 0.00
0.08 0.01 0.00 0.00 0.00 0.00 0.00 0.00 0.00 0.00 0.00 0.00 0.00 0.00 0.00 0.00 0.00 0.00 0.00 0.00 0.00 0.01 0.01 0.02 0.07 0.16 0.31 0.81 1.45 2.56 1.35 0.62 0.13 0.22 0.48 0.61 0.52 0.48 0.20 0.11 0.09 0.02 0.00 0.00 0.00 0.00 0.00 0.00 0.00
0.06 0.02 0.02 0.00 0.00 0.00 0.00 0.00 0.00 0.00 0.00 0.00 0.00 0.00 0.00 0.00 0.00 0.00 0.00 0.00 0.00 0.01 0.01 0.02 0.05 0.09 0.12 0.43 0.72 1.22 1.74 0.61 0.21 0.27 0.45 0.61 0.51 0.32 0.08 0.01 0.01 0.00 0.00 0.00 0.00 0.00 0.00 0.00 0.00
0.03 0.02 0.01 0.00 0.00 0.00 0.00 0.00 0.00 0.00 0.00 0.00 0.00 0.00 0.00 0.00 0.00 0.00 0.00 0.00 0.00 0.00 0.00 0.01 0.05 0.12 0.11 0.46 0.92 0.96 1.15 0.23 0.10 0.18 0.21 0.35 0.32 0.10 0.03 0.01 0.00 0.00 0.00 0.00 0.00 0.00 0.00 0.00 0.00
0.09 0.01 0.02 0.00 0.00 0.00 0.00 0.00 0.00 0.00 0.00 0.00 0.00 0.00 0.00 0.00 0.00 0.00 0.01 0.00 0.00 0.00 0.00 0.00 0.02 0.09 0.11 0.20 0.47 0.45 0.34 0.05 0.05 0.11 0.05 0.16 0.08 0.02 0.03 0.00 0.02 0.00 0.00 0.00 0.00 0.00 0.00 0.00 0.00
0.06 0.01 0.02 0.01 0.00 0.00 0.00 0.00 0.00 0.00 0.00 0.00 0.00 0.00 0.00 0.00 0.00 0.01 0.00 0.00 0.01 0.00 0.00 0.00 0.01 0.02 0.07 0.10 0.17 0.18 0.27 0.05 0.08 0.09 0.02 0.06 0.03 0.00 0.00 0.00 0.00 0.00 0.00 0.00 0.00 0.00 0.00 0.00 0.00
0.02 0.02 0.02 0.02 0.03 0.00 0.00 0.00 0.00 0.00 0.00 0.00 0.00 0.00 0.00 0.00 0.00 0.00 0.00 0.00 0.02 0.01 0.00 0.00 0.00 0.00 0.03 0.04 0.07 0.09 0.10 0.03 0.10 0.04 0.01 0.01 0.02 0.03 0.01 0.00 0.00 0.00 0.00 0.00 0.00 0.00 0.00 0.00 0.00
0.05 0.03 0.03 0.03 0.02 0.01 0.01 0.00 0.00 0.00 0.00 0.00 0.00 0.00 0.00 0.00 0.00 0.01 0.00 0.01 0.00 0.00 0.00 0.00 0.00 0.00 0.00 0.00 0.00 0.01 0.02 0.01 0.03 0.01 0.00 0.00 0.00 0.03 0.02 0.00 0.00 0.00 0.00 0.10 0.01 0.01 0.03 0.00 0.00
0.16 0.31 0.06 0.02 0.02 0.01 0.11 0.00 0.00 0.00 0.00 0.00 0.00 0.00 0.00 0.00 0.00 0.00 0.00 0.02 0.00 0.00 0.00 0.00 0.00 0.00 0.00 0.00 0.00 0.00 0.00 0.01 0.00 0.00 0.00 0.00 0.00 0.04 0.08 0.00 0.00 0.04 0.06 0.15 0.11 0.11 0.13 0.04 0.00
0.11 0.25 0.10 0.02 0.02 0.01 0.05 0.01 0.00 0.00 0.00 0.00 0.00 0.00 0.00 0.00 0.00 0.00 0.01 0.03 0.01 0.01 0.00 0.02 0.01 0.00 0.00 0.00 0.00 0.00 0.00 0.00 0.00 0.00 0.00 0.00 0.00 0.01 0.04 0.01 0.01 0.06 0.18 0.20 0.25 0.38 0.27 0.08 0.06
0.17 0.27 0.13 0.02 0.02 0.03 0.05 0.00 0.00 0.00 0.00 0.00 0.00 0.00 0.00 0.00 0.00 0.01 0.04 0.06 0.05 0.01 0.00 0.00 0.01 0.00 0.00 0.01 0.01 0.02 0.00 0.00 0.00 0.00 0.00 0.00 0.01 0.01 0.07 0.05 0.13 0.09 0.58 0.65 0.40 0.48 0.35 0.26 0.23
0.05 0.09 0.10 0.04 0.02 0.04 0.07 0.01 0.00 0.00 0.00 0.00 0.00 0.00 0.00 0.00 0.00 0.00 0.02 0.05 0.06 0.02 0.00 0.00 0.01 0.01 0.00 0.07 0.07 0.02 0.00 0.00 0.01 0.00 0.00 0.00 0.01 0.01 0.08 0.15 0.34 0.29 0.69 0.75 0.67 0.54 0.49 0.78 0.27
0.02 0.05 0.06 0.03 0.03 0.07 0.12 0.03 0.00 0.00 0.00 0.00 0.00 0.00 0.00 0.00 0.00 0.00 0.00 0.01 0.04 0.08 0.04 0.01 0.01 0.05 0.06 0.15 0.15 0.29 0.28 0.04 0.02 0.02 0.03 0.02 0.09 0.05 0.22 0.54 0.50 0.58 0.47 0.59 0.61 0.51 0.54 0.60 0.37
0.01 0.02 0.04 0.06 0.07 0.15 0.17 0.05 0.00 0.00 0.00 0.00 0.00 0.00 0.00 0.00 0.00 0.00 0.00 0.01 0.01 0.04 0.07 0.06 0.03 0.03 0.01 0.03 0.04 0.08 0.09 0.27 0.25 0.08 0.01 0.01 0.04 0.02 0.04 0.24 0.27 0.30 0.22 0.26 0.31 0.18 0.20 0.40 0.26
0.04 0.00 0.01 0.09 0.28 0.28 0.10 0.05 0.01 0.00 0.00 0.00 0.00 0.00 0.00 0.00 0.00 0.00 0.01 0.01 0.02 0.05 0.04 0.06 0.08 0.03 0.01 0.01 0.01 0.03 0.10 0.17 0.14 0.03 0.00 0.02 0.03 0.01 0.01 0.05 0.20 0.20 0.22 0.17 0.20 0.10 0.16 0.15 0.05
0.08 0.00 0.00 0.02 0.16 0.27 0.07 0.04 0.00 0.00 0.00 0.00 0.00 0.00 0.00 0.00 0.00 0.00 0.00 0.00 0.01 0.03 0.04 0.04 0.06 0.02 0.01 0.00 0.02 0.05 0.02 0.01 0.04 0.03 0.01 0.03 0.02 0.05 0.05 0.09 0.24 0.24 0.17 0.19 0.19 0.08 0.07 0.16 0.13
0.00 0.00 0.01 0.03 0.06 0.15 0.03 0.10 0.02 0.00 0.00 0.00 0.00 0.00 0.00 0.00 0.00 0.00 0.00 0.00 0.00 0.00 0.00 0.00 0.02 0.01 0.00 0.00 0.00 0.01 0.01 0.00 0.06 0.10 0.14 0.03 0.04 0.03 0.19 0.13 0.24 0.27 0.15 0.12 0.17 0.13 0.15 0.21 0.26
0.00 0.05 0.02 0.02 0.03 0.15 0.02 0.12 0.04 0.00 0.00 0.00 0.00 0.00 0.00 0.00 0.00 0.00 0.00 0.00 0.00 0.00 0.00 0.00 0.00 0.00 0.00 0.00 0.00 0.00 0.00 0.01 0.03 0.10 0.05 0.07 0.08 0.09 0.10 0.27 0.29 0.24 0.20 0.13 0.17 0.15 0.23 0.20 0.20
0.00 0.08 0.08 0.05 0.07 0.00 0.00 0.00 0.00 0.00 0.00 0.00 0.00 0.00 0.00 0.02 0.00 0.00 0.00 0.00 0.00 0.00 0.00 0.00 0.00 0.00 0.00 0.00 0.00 0.00 0.00 0.00 0.00 0.01 0.00 0.00 0.01 0.05 0.10 0.17 0.22 0.21 0.21 0.30 0.29 0.31 0.20 0.16 0.10
0.00 0.09 0.19 0.06 0.02 0.01 0.00 0.00 0.00 0.00 0.00 0.00 0.00 0.00 0.00 0.00 0.00 0.00 0.00 0.00 0.00 0.00 0.00 0.00 0.00 0.00 0.00 0.00 0.00 0.00 0.00 0.00 0.00 0.00 0.00 0.00 0.00 0.01 0.03 0.10 0.19 0.33 0.31 0.35 0.33 0.26 0.10 0.03 0.04
0.00 0.00 0.02 0.03 0.00 0.01 0.00 0.00 0.00 0.00 0.00 0.00 0.00 0.00 0.00 0.00 0.00 0.00 0.00 0.00 0.00 0.00 0.00 0.00 0.00 0.00 0.00 0.00 0.00 0.00 0.00 0.00 0.00 0.00 0.00 0.00 0.03 0.11 0.21 0.24 0.35 0.59 0.46 0.50 0.31 0.12 0.07 0.03 0.07
0.00 0.00 0.00 0.01 0.01 0.02 0.00 0.00 0.00 0.00 0.00 0.00 0.00 0.00 0.00 0.00 0.00 0.00 0.00 0.00 0.00 0.00 0.00 0.00 0.00 0.00 0.00 0.00 0.00 0.00 0.00 0.00 0.00 0.01 0.06 0.09 0.15 0.30 0.35 0.61 0.61 0.58 0.57 0.48 0.32 0.19 0.13 0.13 0.11
0.00 0.00 0.01 0.01 0.02 0.02 0.01 0.00 0.00 0.00 0.00 0.00 0.00 0.00 0.00 0.00 0.00 0.00 0.00 0.00 0.00 0.00 0.00 0.00 0.00 0.00 0.00 0.00 0.00 0.00 0.00 0.00 0.03 0.11 0.14 0.27 0.44 0.62 0.95 1.30 1.00 0.82 0.83 0.78 0.62 0.38 0.23 0.09 0.05